DW7901 Weather Reports


time (UTC)temp
C
wind
direction
speed
KPH
gust
KPH
rain 1hr
cm
rain 24hr
cm
rain mn
cm
humidity
%
barometer
mb
20260504182004 21 169 0.0 4.8 0.00 0.00 0.00 21 1015.1
20260504181004 22 181 0.0 3.2 0.00 0.00 0.00 19 1015.0
20260504180004 23 181 3.2 3.2 0.00 0.00 0.00 19 1015.2
20260504174005 26 125 4.8 8.0 0.00 0.00 0.00 10 1014.9
20260504173005 28 135 3.2 3.2 0.00 0.00 0.00 12 1014.8
20260504172004 31 135 0.0 1.6 0.00 0.00 0.00 10 1014.7
20260504171004 33 270 0.0 1.6 0.00 0.00 0.00 12 1014.7
20260504151004 35 279 3.2 11.3 0.00 0.00 0.00 11 1015.3
20260504082003 24 190 9.7 17.7 0.00 0.00 0.00 17 1019.4
20260504081003 24 164 14.5 17.7 0.00 0.00 0.00 21 1019.4
20260503210006 13 184 3.2 4.8 0.00 0.00 0.00 37 1018.7
20260503205005 13 203 3.2 6.4 0.00 0.00 0.00 37 1019.1
20260503204004 14 182 1.6 4.8 0.00 0.00 0.00 35 1018.8
20260503203004 14 182 3.2 4.8 0.00 0.00 0.00 35 1018.8
20260503202005 15 177 3.2 6.4 0.00 0.00 0.00 33 1018.8
20260503201004 15 181 3.2 6.4 0.00 0.00 0.00 33 1018.8
20260503200005 15 174 3.2 6.4 0.00 0.00 0.00 32 1018.8
20260503195005 15 171 3.2 3.2 0.00 0.00 0.00 31 1018.9
20260503194004 16 181 1.6 6.4 0.00 0.00 0.00 30 1019.0
20260503193005 16 172 3.2 6.4 0.00 0.00 0.00 29 1018.9
20260503192005 17 171 3.2 6.4 0.00 0.00 0.00 28 1019.0
20260503191004 17 165 3.2 6.4 0.00 0.00 0.00 28 1019.1
20260503185005 18 172 3.2 6.4 0.00 0.00 0.00 26 1019.0
20260503184004 19 176 3.2 9.7 0.00 0.00 0.00 24 1018.9
20260503183005 20 172 4.8 9.7 0.00 0.00 0.00 22 1019.1